Lid_Strength_Index
12 11 11 11 11 11 13 13 15 13 13 11 10 11 10 9 9 7 7 7 7 8 8 8 7 7 7 7 7 7 7 7 8 8 8 8 8 9 8 8 8 8 8 8
14 11 12 12 11 11 12 12 13 13 13 11 11 10 10 9 9 8 8 7 7 7 7 7 6 6 7 8 7 7 7 8 7 7 8 8 8 8 8 9 9 8 8 8
16 14 14 16 13 12 12 11 11 14 12 11 11 10 11 10 9 9 9 8 7 6 6 6 6 6 8 8 8 8 8 8 8 9 9 9 8 8 8 8 8 8 9 8
17 16 20 12 10 10 11 12 11 11 11 11 10 10 10 9 9 9 9 9 10 9 9 9 9 8 9 9 9 9 10 10 9 9 9 9 8 8 8 8 9 10 10 9
17 17 14 12 11 11 12 13 10 11 10 9 9 9 9 9 10 11 11 11 10 10 10 10 11 10 11 11 11 11 10 10 9 8 8 8 8 8 9 10 11 11 9 9
18 19 20 13 11 9 9 15 9 9 9 9 9 12 10 10 10 11 11 10 11 10 11 11 11 10 10 11 11 10 9 9 8 8 8 8 8 9 9 10 9 9 9 9
20 20 16 12 10 9 15 14 9 8 9 9 10 10 10 10 11 10 11 11 11 11 11 11 10 10 10 9 9 8 8 7 8 8 9 9 9 9 10 10 10 11 11 10
19 21 18 10 10 12 11 9 8 8 8 10 10 10 10 11 11 11 12 11 11 11 11 10 10 10 10 10 9 9 9 10 11 11 10 9 10 10 10 11 11 11 12 10
14 15 11 9 9 8 8 8 8 7 8 9 10 11 11 11 11 12 12 12 11 11 11 10 10 10 12 11 11 11 12 12 11 11 10 10 11 11 11 11 11 11 10 10
12 10 9 8 8 8 7 8 7 7 9 9 11 11 11 12 12 12 12 12 11 11 11 11 11 11 12 11 12 12 13 12 11 11 10 11 11 11 11 11 11 9 9 9
12 10 9 8 10 10 10 9 10 10 9 10 11 11 12 12 12 12 12 11 11 11 12 12 12 13 13 12 12 13 12 12 11 11 11 11 10 10 10 9 9 8 8 8
13 8 9 9 10 9 10 10 10 11 11 11 11 12 12 12 12 12 12 11 12 12 13 14 13 13 12 12 13 13 12 11 12 11 11 11 10 10 8 8 7 6 6 6
10 8 10 10 11 10 10 11 11 11 12 12 12 12 12 13 13 13 13 13 14 14 13 14 14 14 13 13 13 13 12 11 12 12 12 12 11 11 12 10 7 6 5 5
10 10 12 11 12 11 11 11 11 12 12 12 12 13 13 14 14 14 14 14 14 13 13 14 15 15 14 14 13 12 12 12 13 13 13 12 13 12 12 11 11 9 7 5
11 10 11 11 12 12 12 12 13 14 13 13 13 14 14 14 15 15 15 14 14 14 14 16 16 16 14 14 14 13 14 14 14 14 14 14 13 12 12 11 10 10 9 8
11 12 12 13 13 13 13 14 14 15 14 14 14 13 14 15 15 15 15 14 15 16 17 20 16 16 15 15 15 15 15 15 15 14 14 13 12 12 11 11 11 10 10 9
14 15 14 15 14 14 14 13 13 13 14 14 14 15 15 15 15 15 16 16 17 18 17 17 18 16 15 15 15 15 15 15 16 15 14 14 14 13 13 12 13 13 12 9
11 12 12 12 13 13 13 13 14 14 15 15 16 17 18 17 16 17 18 18 19 19 17 17 17 16 16 16 16 15 16 16 17 17 16 16 16 15 15 15 14 14 13 12
11 11 11 12 12 12 13 14 14 14 16 17 16 17 17 17 16 17 18 21 21 20 17 16 15 16 17 16 16 17 18 18 19 17 17 18 18 18 16 17 16 15 14 13
10 11 11 12 13 14 14 14 15 15 15 16 17 18 18 20 19 20 20 20 19 17 15 16 16 17 17 17 20 18 19 20 19 20 20 19 20 20 19 19 18 18 17 16
12 13 14 14 15 14 14 15 16 16 17 17 18 19 19 19 20 21 22 19 17 16 15 17 17 18 18 19 18 22 24 24 25 22 23 22 22 21 21 20 20 20 19 18
13 14 15 15 15 15 15 15 16 18 18 20 21 20 20 19 21 20 22 18 16 20 17 17 17 23 20 22 19 25 21 22 23 24 24 24 24 23 23 22 22 21 20 19
13 14 14 15 15 16 15 16 18 18 19 20 20 20 19 18 18 20 19 16 16 20 17 20 23 24 25 27 27 29 29 29 28 26 28 28 27 24 24 24 22 22 21 20
14 14 15 15 16 16 17 16 16 17 19 18 20 20 18 20 21 16 17 21 24 25 25 25 25 25 27 29 30 31 30 31 32 29 28 28 29 28 25 25 24 23 22 21
14 15 15 16 16 16 15 15 16 16 17 17 17 16 15 16 20 19 22 23 21 22 25 26 26 26 29 31 31 31 31 32 33 30 32 33 29 29 28 27 25 24 23 22
14 15 15 15 15 15 16 16 17 17 18 20 19 23 20 19 19 20 23 24 23 23 25 29 30 30 31 28 28 29 30 28 31 30 32 32 31 29 29 27 26 25 24 22
16 16 16 17 17 17 17 17 17 18 18 21 21 22 20 21 22 22 27 29 29 29 29 30 30 28 28 30 29 27 29 31 32 31 34 34 32 32 31 29 27 26 25 23